Ana Sayfa
METAR-TAF:

METAR-TAF

Havaalanları :

Guadalupe Dağları Ulusal Parkı

Pine Springs, Teksas, Amerika Birleşik Devletleri

Enlem: 31-49-52N, Boylam: 104-48-32W, yükseklik: 1661 m

Güncel hava durumu gözlemi

Rapor saat 18:51 UTC de 37 dakika önce yapıldı.
Rüzgar doğudan 10 kt
Sıcaklık 5°C
Nem 38%
Basınç 1019 hPa
Görüş mesafesi: 16.1 km
5000 ft yükseklikte parçalı bulutlu

METAR: KGDP 251851Z AUTO 08010KT 10SM SCT050 05/M08 A3009 RMK AO2 SLP173 T00501083

Saat: 13:28 (19:28 UTC)


TAF: eksik

4.000'den fazla havaalanı için hava durumu gözlemleri ve tahminleri (METAR ve TAF raporları).

Kullanılabilir istasyonlar harita üzerinde sarı ve kırmızı noktalarla gösterilir.

İstasyonun adını görmek için fareyi noktanın üzerinde gezdirin.

Sonrasında hava gözlem ve tahminlerini görmek için tıklayın.

Haritayı değiştirmek için: yaklaştırmak için siyah artı işaretli yeşil düğmeye ve uzaklaştırmak için de eksi işaretli düğmeye hızla tıklayın; bitişik haritalar için yeşil okları kullanın.


METAR-TAF: